#timestamp,LO_Frequency,Hit,Temp,Hum 
1487862015.5,286047002.4,N,0.0,0.0
1487862035.3,286047000.4,N,0.0,0.0
1487862055.2,286047000.0,N,0.0,0.0
1487862075.9,286046998.7,N,0.0,0.0
1487862095.7,286046999.8,N,0.0,0.0
1487862115.6,286046999.9,N,0.0,0.0
1487862135.4,286047004.0,N,0.0,0.0
1487862155.2,286047003.6,N,0.0,0.0
1487862175.1,286047003.9,N,0.0,0.0
1487862176.0,286047003.9,N,0.0,0.0
1487862195.8,286047004.2,N,0.0,0.0
1487862215.6,286047002.0,N,0.0,0.0
1487862235.5,286047002.8,N,0.0,0.0
1487862255.3,286047003.5,N,0.0,0.0
1487862275.1,286047007.1,N,0.0,0.0
1487862295.9,286047003.2,N,0.0,0.0
1487862315.7,286047003.1,N,0.0,0.0
1487862335.5,286047005.2,N,0.0,0.0
1487862355.3,286047005.3,N,0.0,0.0
1487862375.2,286047004.1,N,0.0,0.0
1487862395.0,286047003.1,N,0.0,0.0
1487862395.9,286047003.1,N,0.0,0.0
1487862415.7,286047003.0,N,0.0,0.0
1487862435.6,286047007.0,N,0.0,0.0
1487862455.4,286047010.2,N,0.0,0.0
1487862475.2,286047008.7,N,0.0,0.0
1487862495.1,286047006.5,N,0.0,0.0
1487862496.0,286047006.5,N,0.0,0.0
1487862515.8,286047006.5,N,0.0,0.0
1487862535.6,286047005.4,N,0.0,0.0
1487862555.5,286047008.7,N,0.0,0.0
1487862575.3,286047006.4,N,0.0,0.0
1487862595.1,286047003.3,N,0.0,0.0
1487862615.9,286047004.9,N,0.0,0.0
1487862635.7,286047006.9,N,0.0,0.0
1487862655.5,286047009.1,N,0.0,0.0
1487862675.4,286047008.0,N,0.0,0.0
1487862695.2,286047008.5,N,0.0,0.0
1487862715.0,286047004.6,N,0.0,0.0
1487862715.9,286047004.6,N,0.0,0.0
1487862735.8,286047007.4,N,0.0,0.0
1487862755.6,286047008.6,N,0.0,0.0
1487862775.4,286047006.1,N,0.0,0.0
1487862795.3,286047007.9,N,0.0,0.0
1487862815.1,286047012.2,N,0.0,0.0
1487862816.0,286047012.2,N,0.0,0.0
1487862835.8,286047010.2,N,0.0,0.0
1487862855.7,286047008.8,N,0.0,0.0
1487862875.5,286047009.5,N,0.0,0.0
1487862895.3,286047007.9,N,0.0,0.0
1487862915.1,286047010.2,N,0.0,0.0
1487862935.9,286047013.7,N,0.0,0.0
1487862955.7,286047012.4,N,0.0,0.0
1487862975.5,286047013.9,N,0.0,0.0
1487862995.4,286047011.7,N,0.0,0.0
1487863015.2,286047009.8,N,0.0,0.0
1487863035.0,286047009.3,N,0.0,0.0
1487863035.9,286047009.3,N,0.0,0.0
1487863055.8,286047010.6,N,0.0,0.0
1487863075.6,286047011.7,N,0.0,0.0
1487863095.4,286047011.9,N,0.0,0.0
1487863115.3,286047013.4,N,0.0,0.0
1487863135.1,286047013.1,N,0.0,0.0
1487863155.8,286047015.0,N,0.0,0.0
1487863175.7,286047014.3,N,0.0,0.0
1487863195.5,286047015.4,N,0.0,0.0
1487863215.3,286047017.0,N,0.0,0.0
1487863235.2,286047016.3,N,0.0,0.0
1487863255.9,286047018.6,N,0.0,0.0
1487863275.7,286047017.8,N,0.0,0.0
1487863295.6,286047018.0,N,0.0,0.0
1487863315.4,286047018.7,N,0.0,0.0
1487863335.2,286047017.5,N,0.0,0.0
1487863355.1,286047017.9,N,0.0,0.0
1487863356.0,286047017.9,N,0.0,0.0
1487863375.8,286047016.0,N,0.0,0.0
1487863395.6,286047018.6,N,0.0,0.0
1487863415.4,286047019.9,N,0.0,0.0
1487863435.3,286047019.4,N,0.0,0.0
1487863455.1,286047019.4,N,0.0,0.0
1487863475.8,286047020.7,N,0.0,0.0
1487863495.7,286047022.9,N,0.0,0.0
1487863515.5,286047021.3,N,0.0,0.0
1487863535.3,286047023.0,N,0.0,0.0
1487863555.2,286047024.8,N,0.0,0.0
1487863575.9,286047023.1,N,0.0,0.0
1487863595.7,286047023.6,N,0.0,0.0
1487863615.6,286047021.2,N,0.0,0.0
1487863635.4,286047022.6,N,0.0,0.0
1487863655.2,286047023.4,N,0.0,0.0
1487863675.1,286047022.8,N,0.0,0.0
1487863676.0,286047022.8,N,0.0,0.0
1487863695.8,286047022.7,N,0.0,0.0
1487863715.6,286047022.2,N,0.0,0.0
1487863735.5,286047023.0,N,0.0,0.0
1487863755.3,286047022.7,N,0.0,0.0
1487863775.1,286047026.1,N,0.0,0.0
1487863795.9,286047025.9,N,0.0,0.0
1487863815.7,286047025.6,N,0.0,0.0
1487863835.5,286047027.8,Y,0.0,0.0
1487863855.4,286047016.6,N,0.0,0.0
1487863875.2,286047014.3,N,0.0,0.0
1487863895.0,286047016.6,N,0.0,0.0
1487863895.9,286047016.6,N,0.0,0.0
1487863915.8,286047017.1,N,0.0,0.0
1487863935.6,286047015.9,N,0.0,0.0
1487863955.4,286047015.9,N,0.0,0.0
1487863975.3,286047016.0,N,0.0,0.0
1487863995.1,286047019.1,N,0.0,0.0
1487863996.0,286047019.1,N,0.0,0.0
1487864015.8,286047018.9,N,0.0,0.0
1487864035.7,286047021.7,N,0.0,0.0
1487864055.5,286047021.5,N,0.0,0.0
1487864075.3,286047017.7,N,0.0,0.0
1487864095.2,286047020.4,N,0.0,0.0
1487864115.9,286047021.3,N,0.0,0.0
1487864135.7,286047022.0,Y,0.0,0.0
1487864155.6,286047009.1,N,0.0,0.0
1487864175.4,286047006.2,N,0.0,0.0
1487864195.2,286047008.6,N,0.0,0.0
1487864215.1,286047008.2,N,0.0,0.0
1487864216.0,286047008.2,N,0.0,0.0
1487864235.8,286047008.8,N,0.0,0.0
1487864255.6,286047008.2,N,0.0,0.0
1487864275.5,286047009.6,N,0.0,0.0
1487864295.3,286047011.5,N,0.0,0.0
1487864315.1,286047011.7,N,0.0,0.0
1487864335.9,286047008.2,N,0.0,0.0
1487864355.7,286047010.4,N,0.0,0.0
1487864375.5,286047010.1,N,0.0,0.0
1487864395.3,286047009.3,N,0.0,0.0
1487864415.2,286047011.2,N,0.0,0.0
1487864435.0,286047011.4,N,0.0,0.0
1487864435.9,286047011.4,N,0.0,0.0
1487864455.7,286047013.3,N,0.0,0.0
1487864475.6,286047013.4,N,0.0,0.0
1487864495.4,286047013.8,N,0.0,0.0
1487864515.2,286047011.1,N,0.0,0.0
1487864535.1,286047014.0,N,0.0,0.0
1487864536.0,286047014.0,N,0.0,0.0
1487864555.8,286047015.1,N,0.0,0.0
1487864575.6,286047016.8,N,0.0,0.0
1487864595.5,286047014.5,N,0.0,0.0
1487864615.3,286047015.0,N,0.0,0.0
1487864635.1,286047015.0,N,0.0,0.0
1487864655.9,286047017.0,N,0.0,0.0
1487864675.7,286047018.8,Y,0.0,0.0
1487864695.5,286047001.0,N,0.0,0.0
1487864715.4,286047000.8,N,0.0,0.0
1487864735.2,286046999.6,N,0.0,0.0
1487864755.0,286046997.8,N,0.0,0.0
1487864755.9,286046997.8,N,0.0,0.0
1487864775.8,286046997.4,N,0.0,0.0
1487864795.6,286046995.0,N,0.0,0.0
1487864815.4,286046997.5,N,0.0,0.0
1487864835.3,286046995.6,N,0.0,0.0
1487864855.1,286046994.8,N,0.0,0.0
1487864856.0,286046994.8,N,0.0,0.0
1487864875.8,286046994.9,N,0.0,0.0
1487864895.7,286046991.8,N,0.0,0.0
1487864915.5,286046990.5,N,0.0,0.0
1487864935.3,286046991.2,N,0.0,0.0
1487864955.2,286046988.5,N,0.0,0.0
1487864975.9,286046986.0,N,0.0,0.0
1487864995.7,286046988.0,N,0.0,0.0
1487865015.6,286046988.0,N,0.0,0.0
1487865035.4,286046987.9,N,0.0,0.0
1487865055.2,286046985.5,N,0.0,0.0
1487865075.0,286046983.7,N,0.0,0.0
1487865076.0,286046983.7,N,0.0,0.0
1487865095.8,286046980.8,N,0.0,0.0
1487865115.6,286046979.6,N,0.0,0.0
1487865135.4,286046978.6,N,0.0,0.0
1487865155.3,286046978.6,N,0.0,0.0
1487865175.1,286046975.8,N,0.0,0.0
1487865195.8,286046976.0,N,0.0,0.0
1487865215.7,286046973.3,N,0.0,0.0
1487865235.5,286046971.2,N,0.0,0.0
1487865255.3,286046971.8,N,0.0,0.0
1487865275.2,286046969.5,N,0.0,0.0
1487865295.9,286046969.3,N,0.0,0.0
1487865315.7,286046967.7,N,0.0,0.0
1487865335.6,286046969.0,N,0.0,0.0
1487865355.4,286046966.3,N,0.0,0.0
1487865375.2,286046966.6,N,0.0,0.0
1487865395.1,286046967.4,N,0.0,0.0
1487865396.0,286046967.4,N,0.0,0.0
1487865415.8,286046965.6,N,0.0,0.0
1487865435.6,286046964.2,N,0.0,0.0
1487865455.5,286046962.3,N,0.0,0.0
1487865475.3,286046963.9,N,0.0,0.0
1487865495.1,286046962.5,N,0.0,0.0
1487865515.9,286046962.1,N,0.0,0.0
1487865535.7,286046960.3,N,0.0,0.0
1487865555.2,286046958.9,N,0.0,0.0
1487865575.0,286046958.2,N,0.0,0.0
1487865575.9,286046958.2,N,0.0,0.0
1487865595.7,286046959.5,N,0.0,0.0
